Погода в Адамовке

Россия / Оренбургская область     51°31′11″N   59°56′08″E
темп.,
°C
ветер,
м/с
пор.,
м/с
влажн.,
%
обл.,
%
осадки,
мм/ч
давл.,
гПа
погр.,
м
13 мая, чт
чт1323:00+16зсз22395 0.0 102811
02:00+14сз22440 0.0 102811
05:00+13ссз22460 0.0 102810
08:00+18ссз12360 0.0 1028165
11:00+23сз11245 0.0 10281531
14:00+25зюз11195 0.0 10272108
17:00+26з22186 0.0 10262355
20:00+22з45336 0.0 102674
14 мая, пт
пт1423:00+18зсз44345 0.0 102745
02:00+17сз44365 0.0 102746
05:00+15ссз33445 0.0 102721
08:00+20ссз23365 0.0 1028189
11:00+26сз22234 0.0 10271197
14:00+28зсз21205 0.0 10262574
17:00+28з42205 0.0 10262849
20:00+24з47330 0.0 1025113
15 мая, сб
сб1523:00+20зсз33320 0.0 102616
02:00+18ссз33411 0.0 102626
05:00+16с33504 0.0 102615
08:00+22с22380 0.0 1026176
11:00+27ссз21240 0.0 10251441
14:00+29з22215 0.0 10243017
17:00+29з53215 0.0 10233192
20:00+24з47334 0.0 1023106
16 мая, вс
вс1623:00+21зсз46344 0.0 102377
02:00+19ссз33448 0.0 102330
05:00+16ссв12511 0.0 102311
08:00+23з23395 0.0 1024172
11:00+28з23250 0.0 10232096
14:00+29з32215 0.0 10223345
17:00+30з53205 0.0 10213321
20:00+26з333036 0.0 102029
17 мая, пн
пн1723:00+21сз233478 0.0 102117
02:00+19с33435 0.0 102113
05:00+18сз22495 0.0 102112
08:00+23ссз114097 0.0 1021166
11:00+28ссз112620 0.0 10201318
14:00+30зсз322181 0.0 10183195
17:00+30сз232187 0.1 10173600
20:00+21ююв7105195 0.6 1017135